Location: ?????
(31.8092°N, 35.2590°E)
Time: 04:39:44
(UTC+00:00)

Cosmos 2360 Rocket - Pass Details

Date: 21 October 2021
Orbit: 832 x 846 km, 71.0° (Epoch: 07 December)

Event Time Altitude Azimuth Distance (km) Brightness Sun altitude
Rises 02:30:04 0° 348° (NNW) 3,409 5.2 -17.0°
Reaches altitude 10° 02:32:40 10° 356° (N) 2,471 4.6 -16.4°
Maximum altitude 02:37:59 40° 65° (ENE) 1,220 3.5 -15.3°
Drops below altitude 10° 02:43:16 10° 135° (SE) 2,458 5.4 -14.2°
Sets 02:45:51 0° 142° (SE) 3,388 6.0 -13.6°
